Domain,Timestamp,Username,Page_title,Edit_summary,Revision_id
commons.wikimedia.org,2022-04-23 01:25:30,Nikki,File:Ca-Qui paga mana.mp3,"/* wbcreateclaim-create:1| */ [[d:Special:EntityPage/P571]]: 30 May 2016, #quickstatements; #temporary_batch_1650676575826",650864591
commons.wikimedia.org,2022-04-23 01:25:29,Nikki,File:Ca-Qui paga mana.mp3,"/* wbsetqualifier-add:1| */ [[d:Special:EntityPage/P2093]]: gonsalet, #quickstatements; #temporary_batch_1650676575826",650864586
commons.wikimedia.org,2022-04-23 01:25:28,Nikki,File:Ca-Qui paga mana.mp3,"/* wbsetqualifier-add:1| */ [[d:Special:EntityPage/P2699]]: https://tatoeba.org/user/profile/gonsalet, #quickstatements; #temporary_batch_1650676575826",650864581
commons.wikimedia.org,2022-04-23 01:25:27,Nikki,File:Ca-Qui paga mana.mp3,"/* wbcreateclaim-create:1| */ [[d:Special:EntityPage/P170]]: some value, #quickstatements; #temporary_batch_1650676575826",650864576
commons.wikimedia.org,2022-04-23 01:25:26,Nikki,File:Ca-Qui paga mana.mp3,"/* wbcreateclaim-create:1| */ [[d:Special:EntityPage/P9533]]: Qui paga, mana., #quickstatements; #temporary_batch_1650676575826",650864574
commons.wikimedia.org,2022-04-23 01:25:25,Nikki,File:Ca-Massa tard.mp3,"/* wbcreateclaim-create:1| */ [[d:Special:EntityPage/P571]]: 30 May 2016, #quickstatements; #temporary_batch_1650676575826",650864567
commons.wikimedia.org,2022-04-23 01:25:24,Nikki,File:Ca-Massa tard.mp3,"/* wbsetqualifier-add:1| */ [[d:Special:EntityPage/P2093]]: gonsalet, #quickstatements; #temporary_batch_1650676575826",650864565
commons.wikimedia.org,2022-04-23 01:25:23,Nikki,File:Ca-Massa tard.mp3,"/* wbsetqualifier-add:1| */ [[d:Special:EntityPage/P2699]]: https://tatoeba.org/user/profile/gonsalet, #quickstatements; #temporary_batch_1650676575826",650864561
commons.wikimedia.org,2022-04-23 01:25:22,Nikki,File:Ca-Massa tard.mp3,"/* wbcreateclaim-create:1| */ [[d:Special:EntityPage/P170]]: some value, #quickstatements; #temporary_batch_1650676575826",650864556
commons.wikimedia.org,2022-04-23 01:25:21,Nikki,File:Ca-Massa tard.mp3,"/* wbcreateclaim-create:1| */ [[d:Special:EntityPage/P9533]]: Massa tard., #quickstatements; #temporary_batch_1650676575826",650864552
commons.wikimedia.org,2022-04-23 01:25:20,Nikki,File:Ca-Afanya't.mp3,"/* wbcreateclaim-create:1| */ [[d:Special:EntityPage/P571]]: 30 May 2016, #quickstatements; #temporary_batch_1650676575826",650864549
commons.wikimedia.org,2022-04-23 01:25:19,Nikki,File:Ca-Afanya't.mp3,"/* wbsetqualifier-add:1| */ [[d:Special:EntityPage/P2093]]: gonsalet, #quickstatements; #temporary_batch_1650676575826",650864544
commons.wikimedia.org,2022-04-23 01:25:18,Nikki,File:Ca-Afanya't.mp3,"/* wbsetqualifier-add:1| */ [[d:Special:EntityPage/P2699]]: https://tatoeba.org/user/profile/gonsalet, #quickstatements; #temporary_batch_1650676575826",650864543
commons.wikimedia.org,2022-04-23 01:25:17,Nikki,File:Ca-Afanya't.mp3,"/* wbcreateclaim-create:1| */ [[d:Special:EntityPage/P170]]: some value, #quickstatements; #temporary_batch_1650676575826",650864540
commons.wikimedia.org,2022-04-23 01:25:16,Nikki,File:Ca-Afanya't.mp3,"/* wbcreateclaim-create:1| */ [[d:Special:EntityPage/P9533]]: Afanya't., #quickstatements; #temporary_batch_1650676575826",650864535
commons.wikimedia.org,2022-04-23 01:25:15,Nikki,File:Ca-De veritat.mp3,"/* wbcreateclaim-create:1| */ [[d:Special:EntityPage/P571]]: 30 May 2016, #quickstatements; #temporary_batch_1650676575826",650864529
commons.wikimedia.org,2022-04-23 01:25:14,Nikki,File:Ca-De veritat.mp3,"/* wbsetqualifier-add:1| */ [[d:Special:EntityPage/P2093]]: gonsalet, #quickstatements; #temporary_batch_1650676575826",650864526
commons.wikimedia.org,2022-04-23 01:25:14,Nikki,File:Ca-De veritat.mp3,"/* wbsetqualifier-add:1| */ [[d:Special:EntityPage/P2699]]: https://tatoeba.org/user/profile/gonsalet, #quickstatements; #temporary_batch_1650676575826",650864522
commons.wikimedia.org,2022-04-23 01:25:13,Nikki,File:Ca-De veritat.mp3,"/* wbcreateclaim-create:1| */ [[d:Special:EntityPage/P170]]: some value, #quickstatements; #temporary_batch_1650676575826",650864519
commons.wikimedia.org,2022-04-23 01:25:12,Nikki,File:Ca-De veritat.mp3,"/* wbcreateclaim-create:1| */ [[d:Special:EntityPage/P9533]]: De veritat?, #quickstatements; #temporary_batch_1650676575826",650864516
commons.wikimedia.org,2022-04-23 01:25:11,Nikki,File:Ca-Carai.mp3,"/* wbcreateclaim-create:1| */ [[d:Special:EntityPage/P571]]: 30 May 2016, #quickstatements; #temporary_batch_1650676575826",650864514
commons.wikimedia.org,2022-04-23 01:25:10,Nikki,File:Ca-Carai.mp3,"/* wbsetqualifier-add:1| */ [[d:Special:EntityPage/P2093]]: gonsalet, #quickstatements; #temporary_batch_1650676575826",650864510
commons.wikimedia.org,2022-04-23 01:25:09,Nikki,File:Ca-Carai.mp3,"/* wbsetqualifier-add:1| */ [[d:Special:EntityPage/P2699]]: https://tatoeba.org/user/profile/gonsalet, #quickstatements; #temporary_batch_1650676575826",650864501
commons.wikimedia.org,2022-04-23 01:25:08,Nikki,File:Ca-Carai.mp3,"/* wbcreateclaim-create:1| */ [[d:Special:EntityPage/P170]]: some value, #quickstatements; #temporary_batch_1650676575826",650864499
commons.wikimedia.org,2022-04-23 01:25:07,Nikki,File:Ca-Carai.mp3,"/* wbcreateclaim-create:1| */ [[d:Special:EntityPage/P9533]]: Carai!, #quickstatements; #temporary_batch_1650676575826",650864496
commons.wikimedia.org,2022-04-23 01:25:06,Nikki,File:Ca-Adéu.mp3,"/* wbcreateclaim-create:1| */ [[d:Special:EntityPage/P571]]: 30 May 2016, #quickstatements; #temporary_batch_1650676575826",650864494
commons.wikimedia.org,2022-04-23 01:25:05,Nikki,File:Ca-Adéu.mp3,"/* wbsetqualifier-add:1| */ [[d:Special:EntityPage/P2093]]: gonsalet, #quickstatements; #temporary_batch_1650676575826",650864489
commons.wikimedia.org,2022-04-23 01:25:04,Nikki,File:Ca-Adéu.mp3,"/* wbsetqualifier-add:1| */ [[d:Special:EntityPage/P2699]]: https://tatoeba.org/user/profile/gonsalet, #quickstatements; #temporary_batch_1650676575826",650864486
commons.wikimedia.org,2022-04-23 01:25:03,Nikki,File:Ca-Adéu.mp3,"/* wbcreateclaim-create:1| */ [[d:Special:EntityPage/P170]]: some value, #quickstatements; #temporary_batch_1650676575826",650864482
commons.wikimedia.org,2022-04-23 01:25:02,Nikki,File:Ca-Adéu.mp3,"/* wbcreateclaim-create:1| */ [[d:Special:EntityPage/P9533]]: Adéu!, #quickstatements; #temporary_batch_1650676575826",650864477
commons.wikimedia.org,2022-04-23 01:25:01,Nikki,File:Ca-És culpa teva.mp3,"/* wbcreateclaim-create:1| */ [[d:Special:EntityPage/P571]]: 29 May 2016, #quickstatements; #temporary_batch_1650676575826",650864475
commons.wikimedia.org,2022-04-23 01:25:00,Nikki,File:Ca-És culpa teva.mp3,"/* wbsetqualifier-add:1| */ [[d:Special:EntityPage/P2093]]: gonsalet, #quickstatements; #temporary_batch_1650676575826",650864472
commons.wikimedia.org,2022-04-23 01:24:59,Nikki,File:Ca-És culpa teva.mp3,"/* wbsetqualifier-add:1| */ [[d:Special:EntityPage/P2699]]: https://tatoeba.org/user/profile/gonsalet, #quickstatements; #temporary_batch_1650676575826",650864467
commons.wikimedia.org,2022-04-23 01:24:58,Nikki,File:Ca-És culpa teva.mp3,"/* wbcreateclaim-create:1| */ [[d:Special:EntityPage/P170]]: some value, #quickstatements; #temporary_batch_1650676575826",650864464
commons.wikimedia.org,2022-04-23 01:24:57,Nikki,File:Ca-És culpa teva.mp3,"/* wbcreateclaim-create:1| */ [[d:Special:EntityPage/P9533]]: És culpa teva., #quickstatements; #temporary_batch_1650676575826",650864459
commons.wikimedia.org,2022-04-23 01:24:56,Nikki,File:Ca-És tot el que pots fer.mp3,"/* wbcreateclaim-create:1| */ [[d:Special:EntityPage/P571]]: 29 May 2016, #quickstatements; #temporary_batch_1650676575826",650864456
commons.wikimedia.org,2022-04-23 01:24:55,Nikki,File:Ca-És tot el que pots fer.mp3,"/* wbsetqualifier-add:1| */ [[d:Special:EntityPage/P2093]]: gonsalet, #quickstatements; #temporary_batch_1650676575826",650864450
commons.wikimedia.org,2022-04-23 01:24:54,Nikki,File:Ca-És tot el que pots fer.mp3,"/* wbsetqualifier-add:1| */ [[d:Special:EntityPage/P2699]]: https://tatoeba.org/user/profile/gonsalet, #quickstatements; #temporary_batch_1650676575826",650864449
commons.wikimedia.org,2022-04-23 01:24:53,Nikki,File:Ca-És tot el que pots fer.mp3,"/* wbcreateclaim-create:1| */ [[d:Special:EntityPage/P170]]: some value, #quickstatements; #temporary_batch_1650676575826",650864447
commons.wikimedia.org,2022-04-23 01:24:52,Nikki,File:Ca-És tot el que pots fer.mp3,"/* wbcreateclaim-create:1| */ [[d:Special:EntityPage/P9533]]: És tot el que pots fer., #quickstatements; #temporary_batch_1650676575826",650864441
commons.wikimedia.org,2022-04-23 01:24:51,Nikki,File:Ca-Estàs d'acord amb Tom no.mp3,"/* wbcreateclaim-create:1| */ [[d:Special:EntityPage/P571]]: 29 May 2016, #quickstatements; #temporary_batch_1650676575826",650864438
commons.wikimedia.org,2022-04-23 01:24:50,Nikki,File:Ca-Estàs d'acord amb Tom no.mp3,"/* wbsetqualifier-add:1| */ [[d:Special:EntityPage/P2093]]: gonsalet, #quickstatements; #temporary_batch_1650676575826",650864437
commons.wikimedia.org,2022-04-23 01:24:50,Nikki,File:Ca-Estàs d'acord amb Tom no.mp3,"/* wbsetqualifier-add:1| */ [[d:Special:EntityPage/P2699]]: https://tatoeba.org/user/profile/gonsalet, #quickstatements; #temporary_batch_1650676575826",650864432
commons.wikimedia.org,2022-04-23 01:24:49,Nikki,File:Ca-Estàs d'acord amb Tom no.mp3,"/* wbcreateclaim-create:1| */ [[d:Special:EntityPage/P170]]: some value, #quickstatements; #temporary_batch_1650676575826",650864428
commons.wikimedia.org,2022-04-23 01:24:48,Nikki,File:Ca-Estàs d'acord amb Tom no.mp3,"/* wbcreateclaim-create:1| */ [[d:Special:EntityPage/P9533]]: Estàs d'acord amb Tom, no?, #quickstatements; #temporary_batch_1650676575826",650864425
commons.wikimedia.org,2022-04-23 01:24:47,Nikki,File:Ca-És realment molest.mp3,"/* wbcreateclaim-create:1| */ [[d:Special:EntityPage/P571]]: 29 May 2016, #quickstatements; #temporary_batch_1650676575826",650864420
commons.wikimedia.org,2022-04-23 01:24:46,Nikki,File:Ca-És realment molest.mp3,"/* wbsetqualifier-add:1| */ [[d:Special:EntityPage/P2093]]: gonsalet, #quickstatements; #temporary_batch_1650676575826",650864417
commons.wikimedia.org,2022-04-23 01:24:45,Nikki,File:Ca-És realment molest.mp3,"/* wbsetqualifier-add:1| */ [[d:Special:EntityPage/P2699]]: https://tatoeba.org/user/profile/gonsalet, #quickstatements; #temporary_batch_1650676575826",650864412
commons.wikimedia.org,2022-04-23 01:24:44,Nikki,File:Ca-És realment molest.mp3,"/* wbcreateclaim-create:1| */ [[d:Special:EntityPage/P170]]: some value, #quickstatements; #temporary_batch_1650676575826",650864411
commons.wikimedia.org,2022-04-23 01:24:43,Nikki,File:Ca-És realment molest.mp3,"/* wbcreateclaim-create:1| */ [[d:Special:EntityPage/P9533]]: És realment molest., #quickstatements; #temporary_batch_1650676575826",650864405
commons.wikimedia.org,2022-04-23 01:24:42,Nikki,File:Ca-Tom vol ser famós.mp3,"/* wbcreateclaim-create:1| */ [[d:Special:EntityPage/P571]]: 29 May 2016, #quickstatements; #temporary_batch_1650676575826",650864402
commons.wikimedia.org,2022-04-23 01:24:41,Nikki,File:Ca-Tom vol ser famós.mp3,"/* wbsetqualifier-add:1| */ [[d:Special:EntityPage/P2093]]: gonsalet, #quickstatements; #temporary_batch_1650676575826",650864398
commons.wikimedia.org,2022-04-23 01:24:40,Nikki,File:Ca-Tom vol ser famós.mp3,"/* wbsetqualifier-add:1| */ [[d:Special:EntityPage/P2699]]: https://tatoeba.org/user/profile/gonsalet, #quickstatements; #temporary_batch_1650676575826",650864397
commons.wikimedia.org,2022-04-23 01:24:39,Nikki,File:Ca-Tom vol ser famós.mp3,"/* wbcreateclaim-create:1| */ [[d:Special:EntityPage/P170]]: some value, #quickstatements; #temporary_batch_1650676575826",650864392
commons.wikimedia.org,2022-04-23 01:24:38,Nikki,File:Ca-Tom vol ser famós.mp3,"/* wbcreateclaim-create:1| */ [[d:Special:EntityPage/P9533]]: Tom vol ser famós., #quickstatements; #temporary_batch_1650676575826",650864387
commons.wikimedia.org,2022-04-23 01:24:37,Nikki,File:Ca-Va ser un malson.mp3,"/* wbcreateclaim-create:1| */ [[d:Special:EntityPage/P571]]: 29 May 2016, #quickstatements; #temporary_batch_1650676575826",650864385
commons.wikimedia.org,2022-04-23 01:24:36,Nikki,File:Ca-Va ser un malson.mp3,"/* wbsetqualifier-add:1| */ [[d:Special:EntityPage/P2093]]: gonsalet, #quickstatements; #temporary_batch_1650676575826",650864382
commons.wikimedia.org,2022-04-23 01:24:35,Nikki,File:Ca-Va ser un malson.mp3,"/* wbsetqualifier-add:1| */ [[d:Special:EntityPage/P2699]]: https://tatoeba.org/user/profile/gonsalet, #quickstatements; #temporary_batch_1650676575826",650864376
commons.wikimedia.org,2022-04-23 01:24:34,Nikki,File:Ca-Va ser un malson.mp3,"/* wbcreateclaim-create:1| */ [[d:Special:EntityPage/P170]]: some value, #quickstatements; #temporary_batch_1650676575826",650864374
commons.wikimedia.org,2022-04-23 01:24:33,Nikki,File:Ca-Va ser un malson.mp3,"/* wbcreateclaim-create:1| */ [[d:Special:EntityPage/P9533]]: Va ser un malson., #quickstatements; #temporary_batch_1650676575826",650864373
commons.wikimedia.org,2022-04-23 01:24:32,Nikki,File:Ca-És més fàcil divertir-se que treballar.mp3,"/* wbcreateclaim-create:1| */ [[d:Special:EntityPage/P571]]: 30 May 2016, #quickstatements; #temporary_batch_1650676575826",650864371
commons.wikimedia.org,2022-04-23 01:24:31,Nikki,File:Ca-És més fàcil divertir-se que treballar.mp3,"/* wbsetqualifier-add:1| */ [[d:Special:EntityPage/P2093]]: gonsalet, #quickstatements; #temporary_batch_1650676575826",650864368
commons.wikimedia.org,2022-04-23 01:24:30,Nikki,File:Ca-És més fàcil divertir-se que treballar.mp3,"/* wbcreateclaim-create:1| */ [[d:Special:EntityPage/P170]]: some value, #quickstatements; #temporary_batch_1650676575826",650864358
commons.wikimedia.org,2022-04-23 01:24:30,Nikki,File:Ca-És més fàcil divertir-se que treballar.mp3,"/* wbsetqualifier-add:1| */ [[d:Special:EntityPage/P2699]]: https://tatoeba.org/user/profile/gonsalet, #quickstatements; #temporary_batch_1650676575826",650864363
commons.wikimedia.org,2022-04-23 01:24:29,Nikki,File:Ca-És més fàcil divertir-se que treballar.mp3,"/* wbcreateclaim-create:1| */ [[d:Special:EntityPage/P9533]]: És més fàcil divertir-se que treballar., #quickstatements; #temporary_batch_1650676575826",650864356
commons.wikimedia.org,2022-04-23 01:24:28,Nikki,File:Ca-Això és un peix.mp3,"/* wbcreateclaim-create:1| */ [[d:Special:EntityPage/P571]]: 30 May 2016, #quickstatements; #temporary_batch_1650676575826",650864352
commons.wikimedia.org,2022-04-23 01:24:27,Nikki,File:Ca-Això és un peix.mp3,"/* wbsetqualifier-add:1| */ [[d:Special:EntityPage/P2093]]: gonsalet, #quickstatements; #temporary_batch_1650676575826",650864348
commons.wikimedia.org,2022-04-23 01:24:26,Nikki,File:Ca-Això és un peix.mp3,"/* wbsetqualifier-add:1| */ [[d:Special:EntityPage/P2699]]: https://tatoeba.org/user/profile/gonsalet, #quickstatements; #temporary_batch_1650676575826",650864344
commons.wikimedia.org,2022-04-23 01:24:25,Nikki,File:Ca-Això és un peix.mp3,"/* wbcreateclaim-create:1| */ [[d:Special:EntityPage/P170]]: some value, #quickstatements; #temporary_batch_1650676575826",650864341
commons.wikimedia.org,2022-04-23 01:24:24,Nikki,File:Ca-Això és un peix.mp3,"/* wbcreateclaim-create:1| */ [[d:Special:EntityPage/P9533]]: Això és un peix., #quickstatements; #temporary_batch_1650676575826",650864336
commons.wikimedia.org,2022-04-23 01:24:23,Nikki,File:Ca-La literatura és el futur d'una nació.mp3,"/* wbcreateclaim-create:1| */ [[d:Special:EntityPage/P571]]: 30 May 2016, #quickstatements; #temporary_batch_1650676575826",650864335
commons.wikimedia.org,2022-04-23 01:24:22,Nikki,File:Ca-La literatura és el futur d'una nació.mp3,"/* wbsetqualifier-add:1| */ [[d:Special:EntityPage/P2093]]: gonsalet, #quickstatements; #temporary_batch_1650676575826",650864330
commons.wikimedia.org,2022-04-23 01:24:21,Nikki,File:Ca-La literatura és el futur d'una nació.mp3,"/* wbsetqualifier-add:1| */ [[d:Special:EntityPage/P2699]]: https://tatoeba.org/user/profile/gonsalet, #quickstatements; #temporary_batch_1650676575826",650864327
commons.wikimedia.org,2022-04-23 01:24:20,Nikki,File:Ca-La literatura és el futur d'una nació.mp3,"/* wbcreateclaim-create:1| */ [[d:Special:EntityPage/P170]]: some value, #quickstatements; #temporary_batch_1650676575826",650864323
commons.wikimedia.org,2022-04-23 01:24:19,Nikki,File:Ca-La literatura és el futur d'una nació.mp3,"/* wbcreateclaim-create:1| */ [[d:Special:EntityPage/P9533]]: La literatura és el futur d'una nació., #quickstatements; #temporary_batch_1650676575826",650864321
commons.wikimedia.org,2022-04-23 01:24:18,Nikki,File:Ca-Què passa.mp3,"/* wbcreateclaim-create:1| */ [[d:Special:EntityPage/P571]]: 29 May 2016, #quickstatements; #temporary_batch_1650676575826",650864318
commons.wikimedia.org,2022-04-23 01:24:17,Nikki,File:Ca-Què passa.mp3,"/* wbsetqualifier-add:1| */ [[d:Special:EntityPage/P2093]]: gonsalet, #quickstatements; #temporary_batch_1650676575826",650864315
commons.wikimedia.org,2022-04-23 01:24:16,Nikki,File:Ca-Què passa.mp3,"/* wbsetqualifier-add:1| */ [[d:Special:EntityPage/P2699]]: https://tatoeba.org/user/profile/gonsalet, #quickstatements; #temporary_batch_1650676575826",650864309
commons.wikimedia.org,2022-04-23 01:24:15,Nikki,File:Ca-Què passa.mp3,"/* wbcreateclaim-create:1| */ [[d:Special:EntityPage/P170]]: some value, #quickstatements; #temporary_batch_1650676575826",650864305
commons.wikimedia.org,2022-04-23 01:24:14,Nikki,File:Ca-Què passa.mp3,"/* wbcreateclaim-create:1| */ [[d:Special:EntityPage/P9533]]: Què passa?, #quickstatements; #temporary_batch_1650676575826",650864300
commons.wikimedia.org,2022-04-23 01:24:13,Nikki,File:Ca-Què hi ha.mp3,"/* wbcreateclaim-create:1| */ [[d:Special:EntityPage/P571]]: 29 May 2016, #quickstatements; #temporary_batch_1650676575826",650864299
commons.wikimedia.org,2022-04-23 01:24:12,Nikki,File:Ca-Què hi ha.mp3,"/* wbsetqualifier-add:1| */ [[d:Special:EntityPage/P2093]]: gonsalet, #quickstatements; #temporary_batch_1650676575826",650864296
commons.wikimedia.org,2022-04-23 01:24:11,Nikki,File:Ca-Què hi ha.mp3,"/* wbcreateclaim-create:1| */ [[d:Special:EntityPage/P170]]: some value, #quickstatements; #temporary_batch_1650676575826",650864288
commons.wikimedia.org,2022-04-23 01:24:11,Nikki,File:Ca-Què hi ha.mp3,"/* wbsetqualifier-add:1| */ [[d:Special:EntityPage/P2699]]: https://tatoeba.org/user/profile/gonsalet, #quickstatements; #temporary_batch_1650676575826",650864291
commons.wikimedia.org,2022-04-23 01:24:10,Nikki,File:Ca-Què hi ha.mp3,"/* wbcreateclaim-create:1| */ [[d:Special:EntityPage/P9533]]: Què hi ha?, #quickstatements; #temporary_batch_1650676575826",650864285
commons.wikimedia.org,2022-04-23 01:24:09,Nikki,File:Ca-Feliç aniversari estimat amic.mp3,"/* wbcreateclaim-create:1| */ [[d:Special:EntityPage/P571]]: 30 May 2016, #quickstatements; #temporary_batch_1650676575826",650864282
commons.wikimedia.org,2022-04-23 01:24:08,Nikki,File:Ca-Feliç aniversari estimat amic.mp3,"/* wbsetqualifier-add:1| */ [[d:Special:EntityPage/P2093]]: gonsalet, #quickstatements; #temporary_batch_1650676575826",650864279
commons.wikimedia.org,2022-04-23 01:24:07,Nikki,File:Ca-Feliç aniversari estimat amic.mp3,"/* wbsetqualifier-add:1| */ [[d:Special:EntityPage/P2699]]: https://tatoeba.org/user/profile/gonsalet, #quickstatements; #temporary_batch_1650676575826",650864275
commons.wikimedia.org,2022-04-23 01:24:06,Nikki,File:Ca-Feliç aniversari estimat amic.mp3,"/* wbcreateclaim-create:1| */ [[d:Special:EntityPage/P170]]: some value, #quickstatements; #temporary_batch_1650676575826",650864272
commons.wikimedia.org,2022-04-23 01:24:05,Nikki,File:Ca-Feliç aniversari estimat amic.mp3,"/* wbcreateclaim-create:1| */ [[d:Special:EntityPage/P9533]]: Feliç aniversari, estimat amic!, #quickstatements; #temporary_batch_1650676575826",650864266
commons.wikimedia.org,2022-04-23 01:24:04,Nikki,File:Ca-Tens dificultats per entendre el que les dones o els nens petits et diuen.mp3,"/* wbcreateclaim-create:1| */ [[d:Special:EntityPage/P571]]: 30 May 2016, #quickstatements; #temporary_batch_1650676575826",650864262
commons.wikimedia.org,2022-04-23 01:24:03,Nikki,File:Ca-Tens dificultats per entendre el que les dones o els nens petits et diuen.mp3,"/* wbsetqualifier-add:1| */ [[d:Special:EntityPage/P2093]]: gonsalet, #quickstatements; #temporary_batch_1650676575826",650864260
commons.wikimedia.org,2022-04-23 01:24:02,Nikki,File:Ca-Tens dificultats per entendre el que les dones o els nens petits et diuen.mp3,"/* wbsetqualifier-add:1| */ [[d:Special:EntityPage/P2699]]: https://tatoeba.org/user/profile/gonsalet, #quickstatements; #temporary_batch_1650676575826",650864257
commons.wikimedia.org,2022-04-23 01:24:01,Nikki,File:Ca-Tens dificultats per entendre el que les dones o els nens petits et diuen.mp3,"/* wbcreateclaim-create:1| */ [[d:Special:EntityPage/P170]]: some value, #quickstatements; #temporary_batch_1650676575826",650864253
commons.wikimedia.org,2022-04-23 01:24:00,Nikki,File:Ca-Tens dificultats per entendre el que les dones o els nens petits et diuen.mp3,"/* wbcreateclaim-create:1| */ [[d:Special:EntityPage/P9533]]: Tens dificultats per entendre el que les dones o els nens petits et diuen?, #quickstatements; #temporary_batch_1650676575826",650864249
commons.wikimedia.org,2022-04-23 01:23:59,Nikki,File:Ca-No ho facis mai més.mp3,"/* wbcreateclaim-create:1| */ [[d:Special:EntityPage/P571]]: 29 May 2016, #quickstatements; #temporary_batch_1650676575826",650864245
commons.wikimedia.org,2022-04-23 01:23:58,Nikki,File:Ca-No ho facis mai més.mp3,"/* wbsetqualifier-add:1| */ [[d:Special:EntityPage/P2093]]: gonsalet, #quickstatements; #temporary_batch_1650676575826",650864243
commons.wikimedia.org,2022-04-23 01:23:57,Nikki,File:Ca-No ho facis mai més.mp3,"/* wbsetqualifier-add:1| */ [[d:Special:EntityPage/P2699]]: https://tatoeba.org/user/profile/gonsalet, #quickstatements; #temporary_batch_1650676575826",650864238
commons.wikimedia.org,2022-04-23 01:23:56,Nikki,File:Ca-No ho facis mai més.mp3,"/* wbcreateclaim-create:1| */ [[d:Special:EntityPage/P170]]: some value, #quickstatements; #temporary_batch_1650676575826",650864235
commons.wikimedia.org,2022-04-23 01:23:55,Nikki,File:Ca-No ho facis mai més.mp3,"/* wbcreateclaim-create:1| */ [[d:Special:EntityPage/P9533]]: No ho facis mai més., #quickstatements; #temporary_batch_1650676575826",650864231
commons.wikimedia.org,2022-04-23 01:23:54,Nikki,File:Ca-Tom és massa jove per portar un cotxe.mp3,"/* wbcreateclaim-create:1| */ [[d:Special:EntityPage/P571]]: 29 May 2016, #quickstatements; #temporary_batch_1650676575826",650864228
commons.wikimedia.org,2022-04-23 01:23:54,Nikki,File:Ca-Tom és massa jove per portar un cotxe.mp3,"/* wbsetqualifier-add:1| */ [[d:Special:EntityPage/P2093]]: gonsalet, #quickstatements; #temporary_batch_1650676575826",650864223
commons.wikimedia.org,2022-04-23 01:23:53,Nikki,File:Ca-Tom és massa jove per portar un cotxe.mp3,"/* wbsetqualifier-add:1| */ [[d:Special:EntityPage/P2699]]: https://tatoeba.org/user/profile/gonsalet, #quickstatements; #temporary_batch_1650676575826",650864221
commons.wikimedia.org,2022-04-23 01:23:52,Nikki,File:Ca-Tom és massa jove per portar un cotxe.mp3,"/* wbcreateclaim-create:1| */ [[d:Special:EntityPage/P170]]: some value, #quickstatements; #temporary_batch_1650676575826",650864219
commons.wikimedia.org,2022-04-23 01:23:51,Nikki,File:Ca-Tom és massa jove per portar un cotxe.mp3,"/* wbcreateclaim-create:1| */ [[d:Special:EntityPage/P9533]]: Tom és massa jove per portar un cotxe., #quickstatements; #temporary_batch_1650676575826",650864217
commons.wikimedia.org,2022-04-23 01:23:50,Nikki,File:Ca-Vaig agafar la pilota amb una mà.mp3,"/* wbcreateclaim-create:1| */ [[d:Special:EntityPage/P571]]: 29 May 2016, #quickstatements; #temporary_batch_1650676575826",650864213